Location: A�t Lahcen
(32.8243°N, 5.4246°W)
Time: 00:14:51
(UTC+00:00)

Cosmos 1125 Rocket - Pass Details

Date: 27 January 2021
Orbit: 756 x 781 km, 74.0° (Epoch: 26 February)

Event Time Altitude Azimuth Distance (km) Brightness Sun altitude
Rises 06:43:45 0° 337° (NNW) 3,265 6.4 -8.0°
Reaches altitude 10° 06:46:11 10° 332° (NNW) 2,335 5.6 -7.5°
Maximum altitude 06:51:19 51° 258° (WSW) 975 3.8 -6.5°
Drops below altitude 10° 06:56:25 10° 183° (S) 2,323 6.2 -5.4°
Sets 06:58:51 0° 178° (S) 3,246 7.0 -4.9°
